Flag for Spain

Past Weather in 28°28'41.4"N, 16°14'12.6"W, Spain — Yesterday and Last 2 Weeks

Currently: 63 °F. Light rain. Passing clouds. (Weather station: Tenerife / Los Rodeos, Spain). See more current weather

Past Weather in 28°28'41.4"N, 16°14'12.6"W — Graph

°F

28°28'41.4"N, 16°14'12.6"W Temperature Yesterday

Maximum temperature yesterday: 68 °F (at 12:00 pm)
Minimum temperature yesterday: 61 °F (at 5:00 am)
Average temperature yesterday: 64 °F

High & Low Weather Summary for the Past Weeks

 TemperatureHumidityPressure
High77 °F (Sep 17, 2:00 pm)100% (Sep 16, 12:30 am)30.24 "Hg (Sep 16, 12:30 am)
Low61 °F (Sep 19, 7:00 am)54% (Sep 22, 2:30 pm)29.95 "Hg (Sep 18, 2:00 am)
Average66 °F89%30.09 "Hg
* Reported Sep 16 12:30 am — Oct 1 12:00 am, 28°28'41.4"N, 16°14'12.6"W. Weather by CustomWeather, © 2022

Note: Actual official high and low records may vary slightly from our data, if they occured in-between our weather recording intervals... More about our weather records

28°28'41.4"N, 16°14'12.6"W Weather History for the Previous 24 Hours

Scroll right to see more
 ConditionsComfort  
Time TempWeatherWind HumidityBarometerVisibility
12:00 am
Sat, Oct 1
64 °FPassing clouds.17 mph88%30.12 "HgN/A
11:30 pm
Fri, Sep 30
63 °FPartly cloudy.20 mph88%30.12 "HgN/A
11:00 pm64 °FPartly cloudy.20 mph88%30.12 "HgN/A
10:30 pm64 °FPartly cloudy.22 mph88%30.12 "HgN/A
10:00 pm64 °FPartly cloudy.20 mph94%30.09 "HgN/A
9:30 pm64 °FPartly cloudy.23 mph88%30.09 "HgN/A
8:30 pm64 °FMild.22 mph94%30.09 "Hg6 mi
8:09 pm64 °FRain. Mostly cloudy.21 mph100%30.09 "Hg2 mi
7:30 pm64 °FRain. Cloudy.15 mph100%30.09 "Hg4 mi
7:00 pm64 °FRain. Cloudy.16 mph100%30.09 "Hg4 mi
6:30 pm64 °FDrizzle. Broken clouds.18 mph100%30.09 "Hg5 mi
5:30 pm64 °FRain. Mostly cloudy.16 mph100%30.09 "Hg2 mi
5:00 pm64 °FDrizzle. Broken clouds.14 mph100%30.09 "Hg6 mi
4:30 pm64 °FMild.15 mph100%30.09 "Hg1 mi
4:00 pm64 °FMild.17 mph100%30.09 "Hg1 mi
3:30 pm66 °FRain. Mostly cloudy.20 mph100%30.09 "Hg1 mi
3:00 pm64 °FRain. Mostly cloudy.20 mph100%30.09 "Hg1 mi
2:30 pm66 °FRain. Broken clouds.20 mph100%30.12 "Hg1 mi
2:00 pm64 °FRain. Broken clouds.21 mph100%30.12 "Hg2 mi
1:30 pm66 °FMild.20 mph94%30.12 "Hg2 mi
1:08 pm68 °FMild.22 mph88%30.12 "Hg3 mi
12:30 pm64 °FMild.18 mph94%30.15 "Hg4 mi
12:00 pm68 °FBroken clouds.18 mph83%30.15 "HgN/A
11:30 am66 °FBroken clouds.15 mph88%30.15 "HgN/A
11:00 am66 °FBroken clouds.16 mph88%30.15 "HgN/A
10:30 am66 °FBroken clouds.15 mph94%30.12 "HgN/A
10:00 am63 °FDrizzle. Broken clouds.16 mph100%30.12 "Hg6 mi
9:38 am63 °FDrizzle. Broken clouds.17 mph100%30.12 "Hg6 mi
9:00 am63 °FPartly sunny.18 mph88%30.09 "HgN/A
8:30 am63 °FDrizzle. Broken clouds.21 mph83%30.09 "HgN/A
8:00 am61 °FBroken clouds.20 mph88%30.09 "HgN/A
7:30 am63 °FPartly cloudy.17 mph83%30.09 "HgN/A
7:00 am61 °FPartly cloudy.18 mph83%30.09 "HgN/A
6:30 am61 °FPartly cloudy.18 mph88%30.09 "HgN/A
6:00 am63 °FPassing clouds.18 mph68%30.09 "HgN/A
5:30 am63 °FPassing clouds.22 mph73%30.09 "HgN/A
5:00 am61 °FPassing clouds.18 mph83%30.09 "HgN/A
4:30 am63 °FPartly cloudy.18 mph83%30.09 "HgN/A
4:00 am63 °FPartly cloudy.17 mph83%30.09 "HgN/A
3:30 am63 °FMostly cloudy.20 mph77%30.09 "HgN/A
3:00 am63 °FPassing clouds.21 mph83%30.12 "HgN/A
2:30 am63 °FPassing clouds.22 mph83%30.12 "HgN/A
2:00 am63 °FPassing clouds.22 mph77%30.12 "HgN/A
Weather by CustomWeather, © 2022

See weather overview